,,Stat6,,Stat2,,Stat8,,Stat9,,Stat10,,Wind1,,Wind1,
time,status,PA1M_AVG,status,PR1M_SUM,status,RH1M_AVG,status,SR1M_AVG,status,TA1M_AVG,status,W1dAve1m,status,W1sAve1m,
2006-08-15, 00:00:00,VALID,916.67,VALID,0,VALID,98.5417,VALID,-0.0169808,VALID,19.5461,VALID,278,VALID,0.196555,
2006-08-15, 00:01:00,VALID,916.667,VALID,0,VALID,98.6053,VALID,-0.0679233,VALID,19.5789,VALID,278,VALID,0.271802,
2006-08-15, 00:02:00,VALID,916.655,VALID,0,VALID,98.6816,VALID,-0.0509425,VALID,19.5947,VALID,278,VALID,0.121189,
2006-08-15, 00:03:00,VALID,916.652,VALID,0,VALID,98.6333,VALID,-0.0339617,VALID,19.6141,VALID,278,VALID,0.0598958,
2006-08-15, 00:04:00,VALID,916.654,VALID,0,VALID,98.5722,VALID,-0.0339617,VALID,19.6238,VALID,278,VALID,0.0529726,
2006-08-15, 00:05:00,VALID,916.653,VALID,0,VALID,98.5875,VALID,-0.0339617,VALID,19.6369,VALID,278,VALID,0.0149148,
2006-08-15, 00:06:00,VALID,916.655,VALID,0,VALID,98.6155,VALID,-0.0679233,VALID,19.627,VALID,278,VALID,0,
2006-08-15, 00:07:00,VALID,916.65,VALID,0,VALID,98.6015,VALID,-0.0339617,VALID,19.624,VALID,278,VALID,0,
2006-08-15, 00:08:00,VALID,916.646,VALID,0,VALID,98.5824,VALID,-0.0509425,VALID,19.6206,VALID,278,VALID,0,
2006-08-15, 00:09:00,VALID,916.639,VALID,0,VALID,98.3993,VALID,0,VALID,19.6047,VALID,278,VALID,0,
2006-08-15, 00:10:00,VALID,916.632,VALID,0,VALID,98.3052,VALID,-0.0509425,VALID,19.5719,VALID,278,VALID,0,
2006-08-15, 00:11:00,VALID,916.632,VALID,0,VALID,98.5583,VALID,-0.0339617,VALID,19.5851,VALID,278,VALID,0,
2006-08-15, 00:12:00,VALID,916.613,VALID,0,VALID,98.5227,VALID,0,VALID,19.5712,VALID,278,VALID,0,
2006-08-15, 00:13:00,VALID,916.587,VALID,0,VALID,98.4451,VALID,0.0849042,VALID,19.5292,VALID,278,VALID,0,
2006-08-15, 00:14:00,VALID,916.578,VALID,0,VALID,98.6969,VALID,0.0509425,VALID,19.5193,VALID,278,VALID,0,
2006-08-15, 00:15:00,VALID,916.568,VALID,0,VALID,98.9881,VALID,0.0509425,VALID,19.5387,VALID,278,VALID,0,
2006-08-15, 00:16:00,VALID,916.539,VALID,0,VALID,99.0504,VALID,0.0509425,VALID,19.5322,VALID,278,VALID,0.0923478,
2006-08-15, 00:17:00,VALID,916.543,VALID,0,VALID,99.0974,VALID,0.0679233,VALID,19.5168,VALID,272,VALID,0.28776,
2006-08-15, 00:18:00,VALID,916.508,VALID,0,VALID,99.2373,VALID,0.0169808,VALID,19.4969,VALID,237,VALID,0.121094,
2006-08-15, 00:19:00,VALID,916.481,VALID,0,VALID,99.4967,VALID,0.0509425,VALID,19.487,VALID,237,VALID,0.103423,
2006-08-15, 00:20:00,VALID,916.461,VALID,0,VALID,99.6785,VALID,0.0509425,VALID,19.5034,VALID,237,VALID,0.147879,
2006-08-15, 00:21:00,VALID,916.441,VALID,0,VALID,99.854,VALID,0.0339617,VALID,19.5324,VALID,223,VALID,0.331931,
2006-08-15, 00:22:00,VALID,916.419,VALID,0,VALID,99.8858,VALID,0.0339617,VALID,19.5391,VALID,180,VALID,0.383384,
2006-08-15, 00:23:00,VALID,916.415,VALID,0,VALID,99.8286,VALID,0.0849042,VALID,19.532,VALID,157,VALID,0.233526,
2006-08-15, 00:24:00,VALID,916.43,VALID,0,VALID,99.7714,VALID,0.0849042,VALID,19.5195,VALID,147,VALID,0.551417,
2006-08-15, 00:25:00,VALID,916.435,VALID,0,VALID,99.6518,VALID,0.0169808,VALID,19.4907,VALID,144,VALID,0.247142,
2006-08-15, 00:26:00,VALID,916.428,VALID,0,VALID,99.7421,VALID,0.0679233,VALID,19.4677,VALID,144,VALID,0.00093006,
2006-08-15, 00:27:00,VALID,916.426,VALID,0,VALID,99.7866,VALID,-0.0509425,VALID,19.4594,VALID,144,VALID,0.000372024,
2006-08-15, 00:28:00,VALID,916.427,VALID,0,VALID,99.1089,VALID,-0.0509425,VALID,19.3728,VALID,232,VALID,0.319602,
2006-08-15, 00:29:00,VALID,916.43,VALID,0,VALID,98.5544,VALID,-0.0509425,VALID,19.2499,VALID,234,VALID,0.329033,
2006-08-15, 00:30:00,VALID,916.441,VALID,0,VALID,99.2093,VALID,-0.0679233,VALID,19.2241,VALID,234,VALID,0.301781,
2006-08-15, 00:31:00,VALID,916.442,VALID,0,VALID,99.6747,VALID,-0.0509425,VALID,19.2502,VALID,234,VALID,0.162287,
2006-08-15, 00:32:00,VALID,916.429,VALID,0,VALID,99.7675,VALID,-0.0849042,VALID,19.2402,VALID,234,VALID,0.0696181,
2006-08-15, 00:33:00,VALID,916.438,VALID,0,VALID,99.7904,VALID,-0.0849042,VALID,19.2174,VALID,234,VALID,0.161577,
2006-08-15, 00:34:00,VALID,916.436,VALID,0,VALID,99.7587,VALID,-0.0679233,VALID,19.2055,VALID,234,VALID,0.177734,
2006-08-15, 00:35:00,VALID,916.443,VALID,0,VALID,99.854,VALID,-0.0509425,VALID,19.1926,VALID,240,VALID,0.386161,
2006-08-15, 00:36:00,VALID,916.457,VALID,0,VALID,99.9072,VALID,-0.0509425,VALID,19.1501,VALID,250,VALID,0.59375,
2006-08-15, 00:37:00,VALID,916.468,VALID,0,VALID,100,VALID,-0.0339617,VALID,19.1375,VALID,250,VALID,0.388579,
2006-08-15, 00:38:00,VALID,916.479,VALID,0,VALID,100,VALID,-0.0509425,VALID,19.1109,VALID,260,VALID,0.590402,
2006-08-15, 00:39:00,VALID,916.492,VALID,0,VALID,100,VALID,-0.0509425,VALID,19.1084,VALID,268,VALID,0.71503,
2006-08-15, 00:40:00,VALID,916.497,VALID,0,VALID,100,VALID,-0.0509425,VALID,19.0858,VALID,270,VALID,0.780717,
2006-08-15, 00:41:00,VALID,916.499,VALID,0,VALID,100,VALID,-0.0679233,VALID,19.1243,VALID,266,VALID,0.602896,
2006-08-15, 00:42:00,VALID,916.516,VALID,0,VALID,100,VALID,0.0339617,VALID,19.1844,VALID,277,VALID,0.688408,
2006-08-15, 00:43:00,VALID,916.498,VALID,0,VALID,100,VALID,0.0339617,VALID,19.213,VALID,274,VALID,0.47061,
2006-08-15, 00:44:00,VALID,916.484,VALID,0,VALID,100,VALID,0.0339617,VALID,19.2393,VALID,273,VALID,0.00416667,
2006-08-15, 00:45:00,VALID,916.467,VALID,0,VALID,100,VALID,0.0849042,VALID,19.2323,VALID,273,VALID,0.0579268,
2006-08-15, 00:46:00,VALID,916.47,VALID,0,VALID,100,VALID,0.0509425,VALID,19.2356,VALID,273,VALID,0.438616,
2006-08-15, 00:47:00,VALID,916.484,VALID,0,VALID,100,VALID,0.0509425,VALID,19.249,VALID,273,VALID,0.463034,
2006-08-15, 00:48:00,VALID,916.508,VALID,0,VALID,100,VALID,0.0679233,VALID,19.2259,VALID,272,VALID,0.324855,
2006-08-15, 00:49:00,VALID,916.494,VALID,0,VALID,100,VALID,0.0339617,VALID,19.236,VALID,271,VALID,0.028343,
2006-08-15, 00:50:00,VALID,916.497,VALID,0,VALID,100,VALID,0.0169808,VALID,19.245,VALID,273,VALID,0.461133,
2006-08-15, 00:51:00,VALID,916.515,VALID,0,VALID,100,VALID,0.0509425,VALID,19.2517,VALID,274,VALID,0.837426,
2006-08-15, 00:52:00,VALID,916.515,VALID,0,VALID,100,VALID,0.0169808,VALID,19.2455,VALID,259,VALID,0.7413,
2006-08-15, 00:53:00,VALID,916.514,VALID,0,VALID,100,VALID,0.0339617,VALID,19.2455,VALID,264,VALID,0.728016,
2006-08-15, 00:54:00,VALID,916.482,VALID,0,VALID,100,VALID,0.0339617,VALID,19.2296,VALID,266,VALID,0.787016,
2006-08-15, 00:55:00,VALID,916.444,VALID,0,VALID,100,VALID,0.0339617,VALID,19.2331,VALID,256,VALID,0.894354,
2006-08-15, 00:56:00,VALID,916.395,VALID,0,VALID,100,VALID,0.0169808,VALID,19.2393,VALID,271,VALID,1.30105,
2006-08-15, 00:57:00,VALID,916.377,VALID,0,VALID,100,VALID,0.0339617,VALID,19.2294,VALID,269,VALID,1.24509,
2006-08-15, 00:58:00,VALID,916.381,VALID,0,VALID,100,VALID,0.0169808,VALID,19.2132,VALID,253,VALID,0.691761,
2006-08-15, 00:59:00,VALID,916.402,VALID,0,VALID,100,VALID,0.0509425,VALID,19.2298,VALID,252,VALID,0.526344,
2006-08-15, 01:00:00,VALID,916.416,VALID,0,VALID,100,VALID,0.0679233,VALID,19.1936,VALID,249,VALID,0.598586,
2006-08-15, 01:01:00,VALID,916.4,VALID,0,VALID,100,VALID,0.0169808,VALID,19.2102,VALID,252,VALID,0.402344,
2006-08-15, 01:02:00,VALID,916.38,VALID,0,VALID,100,VALID,0.0339617,VALID,19.2102,VALID,260,VALID,0.402166,
2006-08-15, 01:03:00,VALID,916.352,VALID,0,VALID,100,VALID,0.0339617,VALID,19.2001,VALID,271,VALID,0.401989,
2006-08-15, 01:04:00,VALID,916.321,VALID,0,VALID,100,VALID,0,VALID,19.21,VALID,277,VALID,0.563702,
2006-08-15, 01:05:00,VALID,916.312,VALID,0,VALID,100,VALID,0.0339617,VALID,19.1976,VALID,283,VALID,0.714749,
2006-08-15, 01:06:00,VALID,916.29,VALID,0,VALID,100,VALID,0.0509425,VALID,19.1812,VALID,286,VALID,0.711119,
2006-08-15, 01:07:00,VALID,916.265,VALID,0,VALID,100,VALID,0.0509425,VALID,19.1814,VALID,284,VALID,0.552591,
2006-08-15, 01:08:00,VALID,916.263,VALID,0,VALID,100,VALID,0.0339617,VALID,19.1584,VALID,268,VALID,0.860305,
2006-08-15, 01:09:00,VALID,916.258,VALID,0,VALID,100,VALID,0.0339617,VALID,19.1459,VALID,261,VALID,0.722747,
2006-08-15, 01:10:00,VALID,916.258,VALID,0,VALID,100,VALID,0.0509425,VALID,19.11,VALID,261,VALID,0.504383,
2006-08-15, 01:11:00,VALID,916.255,VALID,0,VALID,100,VALID,0.0339617,VALID,19.1134,VALID,261,VALID,0.718164,
2006-08-15, 01:12:00,VALID,916.25,VALID,0,VALID,100,VALID,0,VALID,19.1107,VALID,261,VALID,0.677326,
2006-08-15, 01:13:00,VALID,916.256,VALID,0,VALID,100,VALID,0.0509425,VALID,19.1005,VALID,254,VALID,0.835938,
2006-08-15, 01:14:00,VALID,916.255,VALID,0,VALID,100,VALID,0,VALID,19.1196,VALID,272,VALID,0.801669,
2006-08-15, 01:15:00,VALID,916.238,VALID,0,VALID,100,VALID,0.0679233,VALID,19.1422,VALID,276,VALID,0.509028,
2006-08-15, 01:16:00,VALID,916.255,VALID,0,VALID,100,VALID,0.0339617,VALID,19.1718,VALID,275,VALID,0,
2006-08-15, 01:17:00,VALID,916.241,VALID,0,VALID,100,VALID,0.0509425,VALID,19.1978,VALID,275,VALID,0.000726744,
2006-08-15, 01:18:00,VALID,916.228,VALID,0,VALID,100,VALID,0.0509425,VALID,19.2139,VALID,275,VALID,0.118253,
2006-08-15, 01:19:00,VALID,916.214,VALID,0,VALID,100,VALID,0.0849042,VALID,19.21,VALID,275,VALID,0.279883,
2006-08-15, 01:20:00,VALID,916.204,VALID,0,VALID,100,VALID,0.0679233,VALID,19.1874,VALID,275,VALID,0.286086,
2006-08-15, 01:21:00,VALID,916.184,VALID,0,VALID,100,VALID,0.0679233,VALID,19.1943,VALID,275,VALID,0.224657,
2006-08-15, 01:22:00,VALID,916.167,VALID,0,VALID,100,VALID,0.0169808,VALID,19.204,VALID,275,VALID,0.542882,
2006-08-15, 01:23:00,VALID,916.163,VALID,0,VALID,100,VALID,0.0339617,VALID,19.2068,VALID,275,VALID,0.438086,
2006-08-15, 01:24:00,VALID,916.159,VALID,0,VALID,100,VALID,0.0509425,VALID,19.2068,VALID,271,VALID,0.286399,
2006-08-15, 01:25:00,VALID,916.167,VALID,0,VALID,100,VALID,0.0169808,VALID,19.172,VALID,236,VALID,0.520647,
2006-08-15, 01:26:00,VALID,916.16,VALID,0,VALID,100,VALID,0.0339617,VALID,19.1586,VALID,227,VALID,0,
2006-08-15, 01:27:00,VALID,916.139,VALID,0,VALID,100,VALID,0,VALID,19.1596,VALID,227,VALID,0,
2006-08-15, 01:28:00,VALID,916.131,VALID,0,VALID,100,VALID,0.0169808,VALID,19.1725,VALID,227,VALID,0,
2006-08-15, 01:29:00,VALID,916.119,VALID,0,VALID,100,VALID,0,VALID,19.1886,VALID,227,VALID,0,
2006-08-15, 01:30:00,VALID,916.11,VALID,0,VALID,100,VALID,-0.0169808,VALID,19.1916,VALID,227,VALID,0.0310547,
2006-08-15, 01:31:00,VALID,916.086,VALID,0,VALID,100,VALID,0,VALID,19.2142,VALID,240,VALID,0.390439,
2006-08-15, 01:32:00,VALID,916.095,VALID,0,VALID,100,VALID,0,VALID,19.2075,VALID,253,VALID,0.219141,
2006-08-15, 01:33:00,VALID,916.102,VALID,0,VALID,100,VALID,0,VALID,19.2209,VALID,253,VALID,0.0268895,
2006-08-15, 01:34:00,VALID,916.112,VALID,0,VALID,100,VALID,0,VALID,19.1946,VALID,112,VALID,0.547828,
2006-08-15, 01:35:00,VALID,916.12,VALID,0,VALID,100,VALID,0.0169808,VALID,19.1918,VALID,107,VALID,0.356707,
2006-08-15, 01:36:00,VALID,916.104,VALID,0,VALID,100,VALID,-0.0169808,VALID,19.1921,VALID,107,VALID,0.364169,
2006-08-15, 01:37:00,VALID,916.089,VALID,0,VALID,100,VALID,0,VALID,19.1886,VALID,107,VALID,0,
2006-08-15, 01:38:00,VALID,916.094,VALID,0,VALID,100,VALID,0,VALID,19.1988,VALID,107,VALID,0.0316051,
2006-08-15, 01:39:00,VALID,916.088,VALID,0,VALID,100,VALID,0,VALID,19.1951,VALID,232,VALID,0.516578,
2006-08-15, 01:40:00,VALID,916.1,VALID,0,VALID,100,VALID,-0.0169808,VALID,19.2075,VALID,245,VALID,0.490141,
2006-08-15, 01:41:00,VALID,916.086,VALID,0,VALID,100,VALID,0,VALID,19.1978,VALID,253,VALID,0.661204,
2006-08-15, 01:42:00,VALID,916.055,VALID,0,VALID,100,VALID,0,VALID,19.1914,VALID,269,VALID,0.848611,
2006-08-15, 01:43:00,VALID,916.06,VALID,0,VALID,100,VALID,0,VALID,19.1757,VALID,269,VALID,0.0616319,
2006-08-15, 01:44:00,VALID,916.061,VALID,0,VALID,100,VALID,0,VALID,19.1697,VALID,269,VALID,0.11128,
2006-08-15, 01:45:00,VALID,916.058,VALID,0,VALID,100,VALID,0,VALID,19.1434,VALID,197,VALID,0.406631,
2006-08-15, 01:46:00,VALID,916.043,VALID,0,VALID,100,VALID,0,VALID,19.1206,VALID,155,VALID,0.0887784,
2006-08-15, 01:47:00,VALID,916.044,VALID,0,VALID,100,VALID,0,VALID,19.1211,VALID,155,VALID,0.528088,
2006-08-15, 01:48:00,VALID,916.035,VALID,0,VALID,100,VALID,0,VALID,19.134,VALID,189,VALID,0.307617,
2006-08-15, 01:49:00,VALID,916.038,VALID,0,VALID,100,VALID,0,VALID,19.1469,VALID,252,VALID,0.494851,
2006-08-15, 01:50:00,VALID,916.036,VALID,0,VALID,100,VALID,0,VALID,19.1437,VALID,252,VALID,0.570884,
2006-08-15, 01:51:00,VALID,916.037,VALID,0,VALID,100,VALID,0,VALID,19.1305,VALID,262,VALID,0.711664,
2006-08-15, 01:52:00,VALID,916.028,VALID,0,VALID,100,VALID,-0.0169808,VALID,19.1278,VALID,270,VALID,0.498666,
2006-08-15, 01:53:00,VALID,916.007,VALID,0,VALID,100,VALID,-0.0169808,VALID,19.092,VALID,268,VALID,0.474516,
2006-08-15, 01:54:00,VALID,915.998,VALID,0,VALID,100,VALID,0,VALID,19.0687,VALID,254,VALID,0.223214,
2006-08-15, 01:55:00,VALID,915.993,VALID,0,VALID,100,VALID,-0.0169808,VALID,19.0854,VALID,254,VALID,0.00967262,
2006-08-15, 01:56:00,VALID,915.988,VALID,0,VALID,100,VALID,0,VALID,19.0978,VALID,254,VALID,0.324306,
2006-08-15, 01:57:00,VALID,915.959,VALID,0,VALID,100,VALID,0,VALID,19.1308,VALID,254,VALID,0.433789,
2006-08-15, 01:58:00,VALID,915.957,VALID,0,VALID,100,VALID,-0.0169808,VALID,19.1241,VALID,267,VALID,0.631138,
2006-08-15, 01:59:00,VALID,915.95,VALID,0,VALID,100,VALID,-0.0169808,VALID,19.1504,VALID,277,VALID,0.744186,
2006-08-15, 02:00:00,VALID,915.94,VALID,0,VALID,100,VALID,-0.0169808,VALID,19.1734,VALID,277,VALID,0.866235,
2006-08-15, 02:01:00,VALID,915.929,VALID,0,VALID,100,VALID,-0.0169808,VALID,19.1889,VALID,282,VALID,0.6788,
2006-08-15, 02:02:00,VALID,915.924,VALID,0,VALID,100,VALID,-0.0339617,VALID,19.2181,VALID,281,VALID,0.259527,
2006-08-15, 02:03:00,VALID,915.914,VALID,0,VALID,100,VALID,-0.0169808,VALID,19.2244,VALID,281,VALID,0.304324,
2006-08-15, 02:04:00,VALID,915.899,VALID,0,VALID,100,VALID,-0.0169808,VALID,19.2412,VALID,276,VALID,0.869368,
2006-08-15, 02:05:00,VALID,915.89,VALID,0,VALID,100,VALID,-0.0169808,VALID,19.2402,VALID,272,VALID,0.995393,
2006-08-15, 02:06:00,VALID,915.885,VALID,0,VALID,100,VALID,-0.0169808,VALID,19.2534,VALID,237,VALID,1.02471,
2006-08-15, 02:07:00,VALID,915.878,VALID,0,VALID,100,VALID,0,VALID,19.2494,VALID,267,VALID,0.879084,
2006-08-15, 02:08:00,VALID,915.886,VALID,0,VALID,100,VALID,-0.0169808,VALID,19.2661,VALID,269,VALID,0.55625,
2006-08-15, 02:09:00,VALID,915.896,VALID,0,VALID,100,VALID,0,VALID,19.2725,VALID,272,VALID,0.102834,
2006-08-15, 02:10:00,VALID,915.913,VALID,0,VALID,100,VALID,-0.0339617,VALID,19.2728,VALID,273,VALID,0.150073,
2006-08-15, 02:11:00,VALID,915.917,VALID,0,VALID,100,VALID,-0.0169808,VALID,19.2862,VALID,270,VALID,0.354469,
2006-08-15, 02:12:00,VALID,915.908,VALID,0,VALID,100,VALID,-0.0339617,VALID,19.2822,VALID,198,VALID,0.325994,
2006-08-15, 02:13:00,VALID,915.904,VALID,0,VALID,100,VALID,-0.0339617,VALID,19.2624,VALID,148,VALID,0.361285,
2006-08-15, 02:14:00,VALID,915.903,VALID,0,VALID,100,VALID,-0.0169808,VALID,19.2864,VALID,148,VALID,0.132102,
2006-08-15, 02:15:00,VALID,915.912,VALID,0,VALID,100,VALID,-0.0169808,VALID,19.2862,VALID,148,VALID,0.0716146,
2006-08-15, 02:16:00,VALID,915.901,VALID,0,VALID,100,VALID,-0.0679233,VALID,19.3016,VALID,248,VALID,0.47603,
2006-08-15, 02:17:00,VALID,915.893,VALID,0,VALID,100,VALID,-0.0339617,VALID,19.3214,VALID,276,VALID,0.821354,
2006-08-15, 02:18:00,VALID,915.896,VALID,0,VALID,100,VALID,-0.0169808,VALID,19.3212,VALID,279,VALID,0.496264,
2006-08-15, 02:19:00,VALID,915.892,VALID,0,VALID,100,VALID,-0.0169808,VALID,19.3241,VALID,279,VALID,0.302401,
2006-08-15, 02:20:00,VALID,915.89,VALID,0,VALID,100,VALID,-0.0509425,VALID,19.3207,VALID,280,VALID,0.724964,
2006-08-15, 02:21:00,VALID,915.9,VALID,0,VALID,100,VALID,-0.0169808,VALID,19.3274,VALID,282,VALID,0.61319,
2006-08-15, 02:22:00,VALID,915.914,VALID,0,VALID,100,VALID,-0.0339617,VALID,19.3306,VALID,282,VALID,0.200781,
2006-08-15, 02:23:00,VALID,915.929,VALID,0,VALID,100,VALID,0,VALID,19.3172,VALID,282,VALID,0.000744048,
2006-08-15, 02:24:00,VALID,915.928,VALID,0,VALID,100,VALID,0,VALID,19.3175,VALID,282,VALID,0.195494,
2006-08-15, 02:25:00,VALID,915.93,VALID,0,VALID,100,VALID,-0.0169808,VALID,19.3276,VALID,281,VALID,0.378906,
2006-08-15, 02:26:00,VALID,915.926,VALID,0,VALID,100,VALID,0,VALID,19.3274,VALID,281,VALID,0.67066,
2006-08-15, 02:27:00,VALID,915.918,VALID,0,VALID,100,VALID,-0.0169808,VALID,19.3308,VALID,279,VALID,0.882267,
2006-08-15, 02:28:00,VALID,915.919,VALID,0,VALID,100,VALID,-0.0509425,VALID,19.3373,VALID,276,VALID,0.702943,
2006-08-15, 02:29:00,VALID,915.926,VALID,0,VALID,100,VALID,-0.0679233,VALID,19.3403,VALID,262,VALID,0.481517,
2006-08-15, 02:30:00,VALID,915.923,VALID,0,VALID,100,VALID,-0.0169808,VALID,19.35,VALID,258,VALID,0.463601,
2006-08-15, 02:31:00,VALID,915.912,VALID,0,VALID,100,VALID,-0.0509425,VALID,19.3629,VALID,268,VALID,0.695486,
2006-08-15, 02:32:00,VALID,915.924,VALID,0,VALID,100,VALID,-0.0339617,VALID,19.3661,VALID,281,VALID,1.01963,
2006-08-15, 02:33:00,VALID,915.911,VALID,0,VALID,100,VALID,-0.0509425,VALID,19.3822,VALID,281,VALID,0.752418,
2006-08-15, 02:34:00,VALID,915.897,VALID,0,VALID,100,VALID,-0.0509425,VALID,19.3889,VALID,272,VALID,0.679142,
2006-08-15, 02:35:00,VALID,915.868,VALID,0,VALID,100,VALID,-0.0339617,VALID,19.3984,VALID,278,VALID,0.748438,
2006-08-15, 02:36:00,VALID,915.856,VALID,0,VALID,100,VALID,-0.0679233,VALID,19.4085,VALID,275,VALID,1.04336,
2006-08-15, 02:37:00,VALID,915.852,VALID,0,VALID,100,VALID,-0.0339617,VALID,19.4244,VALID,283,VALID,0.857469,
2006-08-15, 02:38:00,VALID,915.848,VALID,0,VALID,100,VALID,-0.0509425,VALID,19.4177,VALID,283,VALID,0.627046,
2006-08-15, 02:39:00,VALID,915.846,VALID,0,VALID,100,VALID,-0.0679233,VALID,19.4346,VALID,287,VALID,0.276867,
2006-08-15, 02:40:00,VALID,915.854,VALID,0,VALID,100,VALID,-0.0849042,VALID,19.4282,VALID,282,VALID,0.449219,
2006-08-15, 02:41:00,VALID,915.841,VALID,0,VALID,100,VALID,-0.0849042,VALID,19.415,VALID,273,VALID,1.13045,
2006-08-15, 02:42:00,VALID,915.839,VALID,0,VALID,100,VALID,0,VALID,19.4299,VALID,276,VALID,1.20167,
2006-08-15, 02:43:00,VALID,915.826,VALID,0,VALID,100,VALID,0.0509425,VALID,19.423,VALID,277,VALID,1.29936,
2006-08-15, 02:44:00,VALID,915.814,VALID,0,VALID,100,VALID,0.0679233,VALID,19.4225,VALID,271,VALID,1.5149,
2006-08-15, 02:45:00,VALID,915.8,VALID,0,VALID,100,VALID,0.0849042,VALID,19.4103,VALID,257,VALID,1.35697,
2006-08-15, 02:46:00,VALID,915.8,VALID,0,VALID,100,VALID,0.0169808,VALID,19.3905,VALID,269,VALID,1.52474,
2006-08-15, 02:47:00,VALID,915.809,VALID,0,VALID,100,VALID,0.0679233,VALID,19.387,VALID,268,VALID,1.16493,
2006-08-15, 02:48:00,VALID,915.825,VALID,0,VALID,100,VALID,0.0509425,VALID,19.3907,VALID,274,VALID,1.40116,
2006-08-15, 02:49:00,VALID,915.832,VALID,0,VALID,100,VALID,0.0169808,VALID,19.378,VALID,259,VALID,1.09613,
2006-08-15, 02:50:00,VALID,915.858,VALID,0,VALID,100,VALID,0.0169808,VALID,19.355,VALID,254,VALID,1.46037,
2006-08-15, 02:51:00,VALID,915.877,VALID,0,VALID,100,VALID,0.0169808,VALID,19.3294,VALID,254,VALID,1.2766,
2006-08-15, 02:52:00,VALID,915.898,VALID,0,VALID,100,VALID,0.0339617,VALID,19.3197,VALID,259,VALID,0.957889,
2006-08-15, 02:53:00,VALID,915.872,VALID,0,VALID,100,VALID,0.0509425,VALID,19.3195,VALID,269,VALID,1.26811,
2006-08-15, 02:54:00,VALID,915.872,VALID,0,VALID,100,VALID,0.0509425,VALID,19.3162,VALID,272,VALID,1.04948,
2006-08-15, 02:55:00,VALID,915.85,VALID,0,VALID,100,VALID,0.0679233,VALID,19.3358,VALID,260,VALID,1.57924,
2006-08-15, 02:56:00,VALID,915.851,VALID,0,VALID,100,VALID,0.0509425,VALID,19.3068,VALID,226,VALID,1.27902,
2006-08-15, 02:57:00,VALID,915.849,VALID,0,VALID,100,VALID,-0.0679233,VALID,19.2822,VALID,269,VALID,1.01656,
2006-08-15, 02:58:00,VALID,915.84,VALID,0,VALID,100,VALID,-0.0679233,VALID,19.2882,VALID,262,VALID,1.09747,
2006-08-15, 02:59:00,VALID,915.824,VALID,0,VALID,100,VALID,-0.0509425,VALID,19.3209,VALID,276,VALID,1.25309,
2006-08-15, 03:00:00,VALID,915.789,VALID,0,VALID,100,VALID,-0.0339617,VALID,19.3239,VALID,265,VALID,1.34877,
2006-08-15, 03:01:00,VALID,915.768,VALID,0,VALID,100,VALID,-0.0509425,VALID,19.3274,VALID,269,VALID,1.05233,
2006-08-15, 03:02:00,VALID,915.756,VALID,0,VALID,100,VALID,-0.0339617,VALID,19.3304,VALID,275,VALID,0.911328,
2006-08-15, 03:03:00,VALID,915.739,VALID,0,VALID,100,VALID,-0.0169808,VALID,19.3373,VALID,263,VALID,0.766578,
2006-08-15, 03:04:00,VALID,915.723,VALID,0,VALID,100,VALID,0,VALID,19.3408,VALID,258,VALID,1.22476,
2006-08-15, 03:05:00,VALID,915.703,VALID,0,VALID,100,VALID,-0.0679233,VALID,19.2949,VALID,257,VALID,1.6995,
2006-08-15, 03:06:00,VALID,915.678,VALID,0,VALID,100,VALID,0,VALID,19.279,VALID,257,VALID,1.58056,
2006-08-15, 03:07:00,VALID,915.673,VALID,0,VALID,100,VALID,-0.0339617,VALID,19.2499,VALID,238,VALID,1.60671,
2006-08-15, 03:08:00,VALID,915.682,VALID,0,VALID,100,VALID,-0.0509425,VALID,19.2177,VALID,237,VALID,1.42787,
2006-08-15, 03:09:00,VALID,915.686,VALID,0,VALID,100,VALID,-0.0169808,VALID,19.2244,VALID,249,VALID,0.708212,
2006-08-15, 03:10:00,VALID,915.656,VALID,0,VALID,100,VALID,0,VALID,19.2271,VALID,252,VALID,1.11078,
2006-08-15, 03:11:00,VALID,915.643,VALID,0,VALID,100,VALID,0,VALID,19.211,VALID,245,VALID,1.24256,
2006-08-15, 03:12:00,VALID,915.605,VALID,0,VALID,100,VALID,-0.0679233,VALID,19.205,VALID,258,VALID,1.07598,
2006-08-15, 03:13:00,VALID,915.609,VALID,0,VALID,100,VALID,-0.0679233,VALID,19.2179,VALID,271,VALID,1.03218,
2006-08-15, 03:14:00,VALID,915.594,VALID,0,VALID,100,VALID,-0.0849042,VALID,19.2209,VALID,254,VALID,0.72674,
2006-08-15, 03:15:00,VALID,915.585,VALID,0,VALID,100,VALID,-0.0339617,VALID,19.2045,VALID,231,VALID,1.25242,
2006-08-15, 03:16:00,VALID,915.575,VALID,0,VALID,100,VALID,-0.0509425,VALID,19.1794,VALID,246,VALID,1.01349,
2006-08-15, 03:17:00,VALID,915.56,VALID,0,VALID,100,VALID,-0.0679233,VALID,19.1663,VALID,252,VALID,1.06886,
2006-08-15, 03:18:00,VALID,915.558,VALID,0,VALID,100,VALID,-0.0679233,VALID,19.1896,VALID,241,VALID,1.04395,
2006-08-15, 03:19:00,VALID,915.536,VALID,0,VALID,100,VALID,-0.101885,VALID,19.1437,VALID,239,VALID,1.27486,
2006-08-15, 03:20:00,VALID,915.517,VALID,0,VALID,100,VALID,-0.0509425,VALID,19.1375,VALID,261,VALID,0.970203,
2006-08-15, 03:21:00,VALID,915.497,VALID,0,VALID,100,VALID,-0.0509425,VALID,19.1402,VALID,242,VALID,0.66875,
2006-08-15, 03:22:00,VALID,915.504,VALID,0,VALID,100,VALID,-0.0509425,VALID,19.1437,VALID,252,VALID,0.609375,
2006-08-15, 03:23:00,VALID,915.508,VALID,0,VALID,100,VALID,-0.0509425,VALID,19.1434,VALID,247,VALID,0.530887,
2006-08-15, 03:24:00,VALID,915.487,VALID,0,VALID,100,VALID,-0.0679233,VALID,19.1757,VALID,257,VALID,0.584032,
2006-08-15, 03:25:00,VALID,915.485,VALID,0,VALID,100,VALID,-0.0679233,VALID,19.1889,VALID,255,VALID,0.868331,
2006-08-15, 03:26:00,VALID,915.485,VALID,0,VALID,100,VALID,-0.0509425,VALID,19.1633,VALID,239,VALID,0.681641,
2006-08-15, 03:27:00,VALID,915.473,VALID,0,VALID,100,VALID,-0.0509425,VALID,19.1243,VALID,241,VALID,1.12329,
2006-08-15, 03:28:00,VALID,915.489,VALID,0,VALID,100,VALID,-0.0339617,VALID,19.0886,VALID,233,VALID,0.657848,
2006-08-15, 03:29:00,VALID,915.496,VALID,0,VALID,100,VALID,-0.0339617,VALID,19.0821,VALID,255,VALID,0.505632,
2006-08-15, 03:30:00,VALID,915.503,VALID,0,VALID,100,VALID,-0.0169808,VALID,19.1186,VALID,257,VALID,0.120164,
2006-08-15, 03:31:00,VALID,915.503,VALID,0,VALID,100,VALID,-0.0679233,VALID,19.1114,VALID,257,VALID,0.415661,
2006-08-15, 03:32:00,VALID,915.509,VALID,0,VALID,100,VALID,-0.0339617,VALID,19.1246,VALID,257,VALID,0.785442,
2006-08-15, 03:33:00,VALID,915.497,VALID,0,VALID,100,VALID,-0.0509425,VALID,19.0916,VALID,268,VALID,1.34462,
2006-08-15, 03:34:00,VALID,915.508,VALID,0,VALID,100,VALID,0,VALID,19.1017,VALID,270,VALID,1.11628,
2006-08-15, 03:35:00,VALID,915.522,VALID,0,VALID,100,VALID,-0.0679233,VALID,19.131,VALID,272,VALID,0.732279,
2006-08-15, 03:36:00,VALID,915.539,VALID,0,VALID,100,VALID,-0.0169808,VALID,19.1375,VALID,276,VALID,0.488467,
2006-08-15, 03:37:00,VALID,915.543,VALID,0,VALID,100,VALID,-0.0509425,VALID,19.1501,VALID,269,VALID,0.823583,
2006-08-15, 03:38:00,VALID,915.534,VALID,0,VALID,100,VALID,0,VALID,19.14,VALID,267,VALID,0.633185,